Lid_Strength_Index
10 10 12 12 11 12 13 13 13 11 9 11 10 10 8 7 7 7 6 6 5 4 3 2 2 1 3 3 4 4 3 3 2 1 3 1 1 1 0 -0 -1 -1 -1 -1
10 12 11 10 11 11 12 12 11 9 9 10 10 10 8 8 8 7 7 6 6 5 4 3 2 2 1 2 2 3 3 3 2 2 1 1 1 0 0 -0 -0 -1 -1 -1
11 10 9 10 10 11 10 11 12 13 11 9 10 11 10 8 7 7 7 7 7 6 5 4 3 3 2 2 2 2 2 1 2 1 1 0 1 0 1 1 0 -0 -0 -1
10 9 10 10 11 10 12 10 12 13 13 15 10 17 11 9 9 9 9 9 8 8 7 6 5 4 3 2 1 1 1 1 1 1 1 1 2 3 1 1 0 0 -0 -0
12 10 10 11 10 10 11 10 12 12 14 14 13 16 12 11 12 12 11 10 9 8 8 8 7 7 5 4 4 2 1 1 0 0 0 1 2 1 1 1 1 0 0 -0
10 8 9 9 9 9 9 11 12 12 14 18 14 15 14 14 13 13 12 11 10 9 9 9 8 8 7 6 5 3 2 1 1 0 1 1 1 1 2 1 1 1 1 0
10 10 9 9 10 9 11 14 18 19 19 18 14 16 14 12 12 12 12 12 10 9 9 10 10 10 10 8 7 6 4 2 1 1 1 1 1 1 1 1 1 2 1 1
14 16 10 9 10 12 12 13 17 21 19 17 13 17 14 10 10 10 10 11 10 10 9 10 10 11 10 9 8 7 6 5 3 2 1 2 1 1 3 4 3 5 4 4
13 14 9 9 9 9 11 14 11 16 14 17 14 13 10 9 10 10 10 10 11 11 11 11 11 10 10 9 9 8 7 7 7 6 5 6 6 5 7 7 6 6 7 6
10 15 10 9 9 9 10 9 15 15 20 20 15 15 16 13 12 9 9 10 11 11 11 11 11 11 11 11 9 8 8 8 8 8 8 8 8 8 8 8 8 8 8 8
9 11 11 10 11 11 11 12 12 12 13 18 18 16 11 12 10 10 8 8 11 11 12 12 12 12 12 12 11 10 9 9 9 9 9 9 9 9 9 9 10 10 10 10
9 10 14 11 9 9 10 11 11 14 15 13 14 15 8 7 7 7 8 8 9 9 11 11 11 11 12 12 12 12 11 12 12 12 12 11 11 11 11 11 11 11 11 11
9 11 15 13 12 10 11 10 10 11 12 15 16 12 7 7 7 7 8 8 9 9 10 11 12 11 11 11 12 11 12 12 11 12 12 11 11 11 12 11 11 11 11 12
9 11 13 15 13 11 13 12 11 12 15 13 13 12 9 9 8 7 7 8 9 9 10 10 11 11 11 11 10 11 11 11 11 11 11 12 11 11 11 10 10 10 10 11
9 13 12 12 11 12 12 13 12 13 13 14 12 12 10 9 9 8 7 7 8 9 10 9 10 11 11 11 11 11 11 11 11 11 11 11 11 10 10 10 10 10 10 11
10 14 13 15 13 13 14 13 12 13 13 13 13 13 9 8 8 8 7 8 8 9 9 9 10 10 10 11 11 11 11 11 11 12 12 12 12 11 12 11 11 11 11 11
12 13 14 17 14 14 16 14 14 13 12 12 14 11 9 9 9 8 8 7 8 8 8 9 9 10 10 11 11 11 11 11 11 12 12 12 12 12 12 12 12 12 12 11
13 13 14 16 15 18 14 12 12 13 12 12 12 11 9 9 8 8 7 7 7 8 8 8 9 10 11 11 11 11 11 11 12 12 12 12 12 12 12 12 12 12 12 12
11 13 15 17 17 14 14 15 14 14 13 11 12 11 10 10 9 10 8 7 7 7 7 8 8 9 10 11 11 12 12 12 12 12 12 12 12 12 12 12 12 12 12 12
12 12 14 15 18 18 14 13 11 11 15 11 11 12 11 11 13 11 8 8 8 7 7 8 9 10 10 11 11 12 12 12 13 12 12 12 12 12 12 12 12 12 12 12
15 14 16 15 16 14 11 11 10 16 14 11 10 10 11 11 10 9 10 9 8 8 9 10 10 11 11 11 12 13 13 13 12 12 12 12 12 12 12 12 12 12 13 13
14 15 15 14 16 18 11 12 14 11 11 10 10 10 10 9 9 9 9 10 9 9 10 10 11 12 12 12 13 13 14 13 13 13 13 13 13 13 13 13 13 13 13 14
15 12 13 13 13 10 10 10 9 10 10 10 10 9 9 10 10 9 9 10 10 10 10 10 11 11 11 12 12 13 12 12 13 13 14 14 14 14 13 14 14 14 14 14
12 11 13 13 11 11 10 9 10 9 9 9 9 9 10 10 9 9 8 9 10 10 10 10 11 11 12 12 12 12 12 12 13 13 14 14 14 14 14 14 14 14 15 15
11 12 13 13 11 11 10 9 9 9 9 9 9 9 10 10 9 9 9 8 9 10 10 10 11 11 12 11 12 12 12 12 13 13 13 13 13 13 13 13 13 13 13 14
10 12 14 14 10 11 10 9 9 10 10 10 10 9 9 9 10 9 9 8 8 9 10 11 11 11 11 11 11 11 12 12 13 13 13 13 13 13 13 13 13 12 12 12